Change the Weather History Date:

Wednesday, August 22, 2012

  Actual Average Record
Temperature  
Mean Temperature 76 °F -  
Max Temperature 91 °F - - ()
Min Temperature 60 °F - - ()
Cooling Degree Days 10    
Growing Degree Days 26 (Base 50)    
Moisture  
Dew Point 54 °F    
Average Humidity 52    
Maximum Humidity 86    
Minimum Humidity 22    
Precipitation  
Precipitation 0.00 in - - ()
Sea Level Pressure  
Sea Level Pressure 30.06 in    
Wind  
Wind Speed 5 mph (SSW)    
Max Wind Speed 15 mph    
Max Gust Speed 21 mph    
Visibility 10 miles    
Events      
T = Trace of Precipitation, MM = Missing Value Source: NWS Daily Summary

Daily Weather History Graph

Daily Weather History Graph

Search for Another Location

Airport or City:

Trip Planner

Search our weather history database for the weather conditions in past years. The results will help you decide how hot, cold, wet, or windy it might be!

Date:

Astronomy

Aug. 22, 2012 Rise Set
Actual Time 6:41 AM CDT 7:58 PM CDT
Civil Twilight 6:14 AM CDT 8:24 PM CDT
Nautical Twilight 5:42 AM CDT 8:56 PM CDT
Astronomical Twilight 5:08 AM CDT 9:30 PM CDT
Moon 12:08 PM CDT (8/22) 10:53 PM CDT (8/22)
Length of Visible Light 14h 10m
Length of Day
13h 16m
Waxing Crescent, 29% of the Moon is Illuminated
Aug 22
Waxing Crescent
Aug 24
First Quarter
Aug 31
Full
Sep 8
Last Quarter
Sep 15
New

Hourly Weather History & Observations

Time (CDT) Temp. Heat Index Dew Point Humidity Pressure Visibility Wind Dir Wind Speed Gust Speed Precip Events Conditions
12:53 AM 66.9 °F - 53.1 °F 61% 30.04 in 10.0 mi SSW 4.6 mph - N/A   Clear
1:53 AM 64.9 °F - 53.1 °F 65% 30.04 in 10.0 mi SSW 3.5 mph - N/A   Clear
2:53 AM 64.9 °F - 53.1 °F 65% 30.05 in 10.0 mi South 5.8 mph - N/A   Clear
3:53 AM 64.9 °F - 55.0 °F 70% 30.06 in 10.0 mi Calm Calm - N/A   Clear
4:53 AM 63.0 °F - 55.9 °F 78% 30.07 in 10.0 mi Calm Calm - N/A   Clear
5:53 AM 62.1 °F - 57.0 °F 84% 30.08 in 10.0 mi West 3.5 mph - N/A   Clear
6:53 AM 60.1 °F - 55.9 °F 86% 30.10 in 10.0 mi South 3.5 mph - N/A   Clear
7:53 AM 66.0 °F - 59.0 °F 78% 30.11 in 10.0 mi Calm Calm - N/A   Clear
8:53 AM 72.0 °F - 61.0 °F 68% 30.12 in 10.0 mi Calm Calm - N/A   Clear
9:53 AM 79.0 °F - 61.0 °F 54% 30.12 in 10.0 mi Variable 3.5 mph - N/A   Clear
10:53 AM 82.9 °F 83.2 °F 60.1 °F 46% 30.12 in 10.0 mi SW 5.8 mph - N/A   Clear
11:53 AM 84.0 °F 83.3 °F 57.0 °F 40% 30.11 in 10.0 mi Calm Calm - N/A   Clear
1:53 PM 88.0 °F - 48.0 °F 25% 30.07 in 10.0 mi SSW 12.7 mph 17.3 mph N/A   Partly Cloudy
2:53 PM 91.0 °F - 48.9 °F 23% 30.04 in 10.0 mi South 11.5 mph 17.3 mph N/A   Clear
3:53 PM 90.0 °F - 46.0 °F 22% 30.03 in 10.0 mi South 15.0 mph 20.7 mph N/A   Clear
5:53 PM 89.1 °F - 45.0 °F 22% 30.01 in 10.0 mi South 11.5 mph - N/A   Clear
6:53 PM 87.1 °F - 46.9 °F 25% 30.01 in 10.0 mi South 9.2 mph - N/A   Clear
7:53 PM 82.9 °F - 50.0 °F 32% 30.01 in 10.0 mi South 6.9 mph - N/A   Clear
8:53 PM 79.0 °F - 52.0 °F 39% 30.01 in 10.0 mi South 4.6 mph - N/A   Clear
9:53 PM 75.0 °F - 53.1 °F 46% 30.02 in 10.0 mi South 3.5 mph - N/A   Clear
10:53 PM 72.0 °F - 53.1 °F 51% 30.03 in 10.0 mi SSW 4.6 mph - N/A   Clear
11:53 PM 71.1 °F - 53.1 °F 53% 30.04 in 10.0 mi South 4.6 mph - N/A   Clear